This is the latest recevied weather packets stored in our database for station/object IU5JAE-13. If no packets are shown the sender has not sent any weather packets the latest 10 day(s).
| Time | Temp. | Humidity | Pressure | Rain* | Wind** | Luminosity | Snow |
|---|---|---|---|---|---|---|---|
| 1777992325 | 16.11° C | 93% | 1012.6 hPa | 0 mm | - | 137 W/m² | - |
| 1777991723 | 16.11° C | 93% | 1012.7 hPa | 0 mm | - | 88 W/m² | - |
| 1777991120 | 16.11° C | 94% | 1012.7 hPa | 0 mm | - | 137 W/m² | - |
| 1777990518 | 16.11° C | 95% | 1012.7 hPa | 0 mm | - | 125 W/m² | - |
| 1777989916 | 16.11° C | 95% | 1012.6 hPa | 0 mm | - | 99 W/m² | - |
| 1777989333 | 16.11° C | 96% | 1012.6 hPa | 0 mm | - | 170 W/m² | - |
| 1777988731 | 16.11° C | 96% | 1012.7 hPa | 0 mm | - | 142 W/m² | - |
| 1777988128 | 16.11° C | 96% | 1012.7 hPa | 0 mm | - | 198 W/m² | - |
| 1777987526 | 15.56° C | 96% | 1012.7 hPa | 0 mm | - | 209 W/m² | - |
| 1777986924 | 15.56° C | 97% | 1012.7 hPa | 0 mm | - | 376 W/m² | - |
| 1777986321 | 15° C | 98% | 1012.8 hPa | 0.51 mm | - | 154 W/m² | - |
| 1777985719 | 15° C | 99% | 1012.9 hPa | 2.29 mm | - | 303 W/m² | - |
| 1777985116 | 15° C | 99% | 1012.9 hPa | 2.29 mm | - | 123 W/m² | - |
| 1777984534 | 14.44° C | 99% | 1012.8 hPa | 2.29 mm | - | 166 W/m² | - |
| 1777983932 | 14.44° C | 99% | 1012.9 hPa | 2.29 mm | - | 126 W/m² | - |
| 1777983329 | 14.44° C | 99% | 1013 hPa | 2.29 mm | - | 70 W/m² | - |
| 1777982727 | 14.44° C | 99% | 1012.9 hPa | 2.03 mm | - | 86 W/m² | - |
| 1777982124 | 14.44° C | 99% | 1012.9 hPa | 0.25 mm | - | 141 W/m² | - |
| 1777981522 | 14.44° C | 99% | 1012.9 hPa | 0.25 mm | - | 202 W/m² | - |
| 1777980920 | 13.89° C | 99% | 1012.8 hPa | 0.51 mm | - | 227 W/m² | - |
| 1777980317 | 13.89° C | 99% | 1012.8 hPa | 0.51 mm | - | 74 W/m² | - |
| 1777979735 | 13.33° C | 99% | 1012.8 hPa | 0.51 mm | - | 128 W/m² | - |
| 1777979132 | 13.33° C | 99% | 1013 hPa | 0.76 mm | - | 63 W/m² | - |
| 1777978530 | 13.33° C | 99% | 1012.8 hPa | 1.02 mm | - | 56 W/m² | - |
| 1777977928 | 13.33° C | 99% | 1012.9 hPa | 1.78 mm | - | 55 W/m² | - |
* Rain latest hour (hover to see other rain measurements)
** Current wind speed in m/s (hover to see current wind gust speed)